Regional Weather Roundup
Issued by NWS

Home | Current Version | Previous Version | Text Only | Print | Product List | Glossary Off
Versions: 1 2 3 4 5 6 7 8 9 10 11 12 13 14 15 16 17 18 19 20 21 22 23 24 25 26 27 28 29 30 31 32 33 34 35 36 37 38 39 40 41 42 43 44 45 46 47 48 49 50

000
ASUS43 KFSD 270010
RWRSD

WEATHER ROUNDUP FOR SOUTH DAKOTA
NATIONAL WEATHER SERVICE SIOUX FALLS SD
600 PM CST FRI DEC 26 2014

NOTE: "FAIR" INDICATES FEW OR NO CLOUDS BELOW 12,000 FEET WITH NO
SIGNIFICANT WEATHER AND/OR OBSTRUCTIONS TO VISIBILITY.


SDZ001>005-009-010-012>017-270100-
NORTHWEST AND NORTH CENTRAL SOUTH DAKOTA

CITY           SKY/WX    TMP DP  RH WIND       PRES   REMARKS
BUFFALO          N/A     18  10  71 W7        30.04R WCI   9
FAITH            N/A     15   8  73 NW7       30.12S WCI   5
MOBRIDGE       CLOUDY    16  11  80 E3        30.15R
$$

SDZ012>016-024>037-041>051-057-063-072>074-270100-
SOUTHWEST AND SOUTH CENTRAL SOUTH DAKOTA

CITY           SKY/WX    TMP DP  RH WIND       PRES   REMARKS
RAPID CTY ARPT CLOUDY    18  13  80 CALM      30.10R
PIERRE         CLOUDY    18  12  77 N13       30.16S WCI   5
CUSTER         MOCLDY    12   9  87 S3        29.93R
ELLSWORTH AFB  CLOUDY    18  13  82 NE1       30.09R
PHILIP         MOCLDY    15   8  73 N7        30.15F WCI   5
PINE RIDGE     CLOUDY    18  12  77 N6        30.09R WCI  10
SPEARFISH      CLOUDY    18  12  79 NW6       30.07S WCI   9
WINNER         FLURRIES  21  16  81 N15       30.12F WCI   8
$$

SDZ004>011-016>023-039-040-270100-
NORTHEAST SOUTH DAKOTA

CITY           SKY/WX    TMP DP  RH WIND       PRES   REMARKS
ABERDEEN       CLOUDY    19  14  81 N10       30.21R WCI   7
WATERTOWN      CLOUDY    20  17  88 N16       30.11R WCI   6
SISSETON         N/A     22  19  89 N13       30.16R WCI  10
$$

SDZ017-020-022-023-036>040-048>070-270100-
SOUTHEAST SOUTH DAKOTA

CITY           SKY/WX    TMP DP  RH WIND       PRES   REMARKS
SIOUX FALLS    LGT SNOW  24  21  88 N9        30.10R VSB 1   WCI  14
HURON          CLOUDY    22  18  85 N13       30.17R WCI  10
CHAMBERLAIN    CLOUDY    21  17  84 N15       30.15S WCI   8
MITCHELL       LGT SNOW  24  21  88 N13       30.15R FOG     WCI  12
YANKTON        CLOUDY    25  21  86 N17       30.10S WCI  11
$$

ABBREVIATIONS USED IN REMARKS
   TC - TEMPERATURE IN CELSIUS
  WCI - WIND CHILL INDEX
   HX - HEAT INDEX
  VSB - VISIBILITY




USA.gov is the U.S. government's official web portal to all federal, state and local government web resources and services.